Flag for Morocco Weather past 2 weeks in Tangier, Morocco

Now
43 °F

Clear.


Feels Like: 41 °F
Forecast: 44 / 63 °F
Wind: 3 mph from East

Location: Tanger Aerodrome

Current Time: Dec 27, 2014 at 1:40:44 AM

Latest Report: Dec 27, 2014 at 1:00 AM


Visibility: 10 mi

Pressure: 30.42 "Hg

Humidity: 93%

Dew point: 41 °F

Location of TangierLocation

Historic Weather in Tangier — Graph

°F

Tangier temperature yesterday

Maximum temperature yesterday: 63 °F (at 1:00 PM)
Minimum temperature yesterday: 41 °F (at 7:00 AM)
Average temperature yesterday: 50 °F

Past Weeks' High & Low Weather Summary

 TemperatureHumidityPressure
High68 °F (Dec 21, 1:00 PM)100% (Dec 17, 1:30 AM)30.48 "Hg (Dec 17, 1:30 AM)
Low41 °F (Dec 12, 4:00 AM)40% (Dec 13, 2:30 PM)29.80 "Hg (Dec 14, 2:00 PM)
Average54 °F83%30.26 "Hg
* Reported Midnight between Dec 11 and Dec 12 — Midnight between Dec 26 and Dec 27, Tangier, Weather by CustomWeather, © 2014

Note: Actual official high and low records may vary slightly from our data, if they occured in-between our weather recording intervals... More about our weather records

Advertising

Tangier weather history for previous 24 hours

 ConditionsComfort  
Time TempWeatherWind HumidityBarometerVisibility
12:00 AM
Dec 27
45 °FPassing clouds.3 mph87%30.42 "HgN/A
11:30 PM
Dec 26
45 °FPassing clouds.3 mph87%30.42 "HgN/A
11:00 PM45 °FPassing clouds.3 mph87%30.45 "HgN/A
10:30 PM45 °FClear.2 mph87%30.45 "Hg10 mi
10:00 PM45 °FClear.3 mph87%30.45 "Hg10 mi
9:30 PM45 °FClear.3 mph87%30.42 "Hg10 mi
9:00 PM45 °FClear.2 mph87%30.42 "Hg10 mi
8:30 PM43 °FClear.3 mph87%30.42 "Hg10 mi
7:30 PM46 °FPassing clouds.3 mph87%30.42 "HgN/A
7:00 PM48 °FPassing clouds.3 mph82%30.42 "HgN/A
6:30 PM48 °FClear.5 mph82%30.42 "Hg10 mi
6:00 PM50 °FClear.3 mph76%30.42 "Hg10 mi
5:30 PM55 °FClear.2 mph67%30.42 "Hg10 mi
5:00 PM57 °FClear.2 mph67%30.42 "Hg10 mi
4:30 PM59 °FPassing clouds.3 mph63%30.42 "HgN/A
4:00 PM61 °FPassing clouds.6 mph59%30.42 "HgN/A
3:30 PM61 °FPassing clouds.6 mph59%30.42 "HgN/A
3:00 PM63 °FScattered clouds.6 mph59%30.42 "HgN/A
2:30 PM63 °FScattered clouds.7 mph68%30.42 "Hg5 mi
2:00 PM63 °FPassing clouds.6 mph73%30.42 "Hg5 mi
1:30 PM63 °FPassing clouds.6 mph64%30.45 "Hg5 mi
1:00 PM63 °FPassing clouds.6 mph68%30.45 "Hg5 mi
12:30 PM61 °FPassing clouds.6 mph68%30.45 "Hg5 mi
12:00 PM61 °FPassing clouds.2 mph63%30.45 "Hg5 mi
11:30 AM57 °FPassing clouds.1 mph67%30.48 "Hg5 mi
11:00 AM55 °FPassing clouds.2 mph77%30.48 "Hg5 mi
10:30 AM54 °FPassing clouds.No wind88%30.48 "Hg5 mi
10:00 AM52 °FPassing clouds.1 mph94%30.48 "Hg5 mi
9:30 AM50 °FPassing clouds.3 mph94%30.45 "Hg5 mi
9:00 AM45 °FPassing clouds.No wind93%30.45 "Hg5 mi
8:00 AM41 °FPassing clouds.2 mph93%30.45 "Hg5 mi
7:30 AM43 °FPassing clouds.3 mph93%30.42 "Hg3 mi
7:00 AM41 °FPassing clouds.2 mph93%30.42 "Hg4 mi
6:30 AM43 °FFog.3 mph93%30.42 "Hg2 mi
6:00 AM43 °FFog.2 mph93%30.42 "Hg2 mi
5:30 AM45 °FFog.3 mph87%30.42 "Hg2 mi
5:00 AM45 °FFog.3 mph93%30.42 "Hg2 mi
4:30 AM43 °FFog.2 mph93%30.42 "Hg2 mi
4:00 AM45 °FFog.3 mph93%30.42 "HgN/A
3:30 AM46 °FPassing clouds.3 mph87%30.42 "Hg4 mi
3:00 AM46 °FFog.3 mph93%30.42 "Hg2 mi
2:30 AM46 °FFog.1 mph87%30.42 "Hg2 mi
2:00 AM45 °FFog.3 mph93%30.42 "Hg2 mi
1:30 AM46 °FFog.2 mph93%30.42 "Hg2 mi
1:00 AM46 °FPassing clouds.3 mph93%30.42 "Hg4 mi
Weather by CustomWeather, © 2014

See weather overviewHow to use our weather pages